Time,TemperatureF,DewpointF,PressureIn,WindDirection,WindDirectionDegrees,WindSpeedMPH,WindSpeedGustMPH,Humidity,HourlyPrecipIn,Conditions,Clouds,dailyrainin,SolarRadiationWatts/m^2,SoftwareType,DateUTC
2013-04-10 00:00:00,19.1,16.4,29.95,NNE,19,4.0,7.0,89,0.00,,SKC,0.25,0.00,VWS V14.01,2013-04-10 06:00:00,
2013-04-10 00:03:00,17.9,15.2,29.96,North,9,0.0,3.0,89,0.00,,SKC,0.00,0.00,VWS V14.01,2013-04-10 06:03:00,
2013-04-10 00:09:00,17.7,14.8,29.96,North,355,1.0,3.0,88,0.00,,SKC,0.00,0.00,VWS V14.01,2013-04-10 06:09:00,
2013-04-10 00:15:00,17.6,14.7,29.96,North,355,0.0,4.0,88,0.00,,SKC,0.00,0.00,VWS V14.01,2013-04-10 06:15:00,
2013-04-10 00:21:00,17.5,14.6,29.96,NNW,336,0.0,4.0,88,0.00,,SKC,0.00,0.00,VWS V14.01,2013-04-10 06:21:00,
2013-04-10 00:27:00,17.3,14.4,29.97,NW,304,0.0,4.0,88,0.00,,SKC,0.00,0.00,VWS V14.01,2013-04-10 06:27:00,
2013-04-10 00:30:00,18.5,15.8,29.95,NNE,13,0.0,7.0,89,0.00,,SKC,0.25,0.00,VWS V14.01,2013-04-10 06:30:00,
2013-04-10 00:33:00,17.2,14.3,29.97,NW,306,0.0,0.0,88,0.00,,SKC,0.00,0.00,VWS V14.01,2013-04-10 06:33:00,
2013-04-10 00:39:00,17.1,14.2,29.97,NW,306,0.0,0.0,88,0.00,,SKC,0.00,0.00,VWS V14.01,2013-04-10 06:39:00,
2013-04-10 00:45:00,17.0,14.1,29.97,NW,306,0.0,0.0,88,0.00,,SKC,0.00,0.00,VWS V14.01,2013-04-10 06:45:00,
2013-04-10 00:51:00,16.7,13.8,29.97,NW,306,0.0,0.0,88,0.00,,SKC,0.00,0.00,VWS V14.01,2013-04-10 06:51:00,
2013-04-10 00:58:00,16.5,13.6,29.97,NW,306,0.0,0.0,88,0.00,,SKC,0.00,0.00,VWS V14.01,2013-04-10 06:58:00,
2013-04-10 01:00:00,17.9,15.2,29.98,North,9,1.0,4.0,89,0.00,,SKC,0.25,0.00,VWS V14.01,2013-04-10 07:00:00,
2013-04-10 01:04:00,16.3,13.4,29.97,NW,306,0.0,0.0,88,0.00,,SKC,0.00,0.00,VWS V14.01,2013-04-10 07:04:00,
2013-04-10 01:10:00,16.1,12.9,29.98,NW,306,0.0,0.0,87,0.00,,SKC,0.00,0.00,VWS V14.01,2013-04-10 07:10:00,
2013-04-10 01:15:00,17.6,14.7,29.96,North,355,1.0,4.0,88,0.00,,SKC,0.00,0.00,VWS V14.01,2013-04-10 07:15:00,
2013-04-10 01:16:00,15.8,12.6,29.97,NW,306,0.0,1.0,87,0.00,,SKC,0.00,0.00,VWS V14.01,2013-04-10 07:16:00,
2013-04-10 01:22:00,15.5,12.3,29.98,NW,306,1.0,1.0,87,0.00,,SKC,0.00,0.00,VWS V14.01,2013-04-10 07:22:00,
2013-04-10 01:28:00,15.4,12.5,30.00,NW,306,0.0,2.0,88,0.00,,SKC,0.00,0.00,VWS V14.01,2013-04-10 07:28:00,
2013-04-10 01:30:00,17.2,14.3,29.97,NW,306,0.0,4.0,88,0.00,,SKC,0.00,0.00,VWS V14.01,2013-04-10 07:30:00,
2013-04-10 01:34:00,15.4,12.5,30.00,NW,307,2.0,2.0,88,0.00,,SKC,0.00,0.00,VWS V14.01,2013-04-10 07:34:00,
2013-04-10 01:40:00,15.7,13.0,29.99,NNW,336,2.0,4.0,89,0.00,,SKC,0.00,0.00,VWS V14.01,2013-04-10 07:40:00,
2013-04-10 01:45:00,17.0,14.1,29.97,NW,306,0.0,0.0,88,0.00,,SKC,0.00,0.00,VWS V14.01,2013-04-10 07:45:00,
2013-04-10 01:46:00,16.0,13.3,29.99,NNW,338,3.0,4.0,89,0.00,,SKC,0.00,0.00,VWS V14.01,2013-04-10 07:46:00,
2013-04-10 01:51:00,16.4,14.0,29.99,North,355,1.0,5.0,90,0.00,,SKC,0.00,0.00,VWS V14.01,2013-04-10 07:51:00,
2013-04-10 01:57:00,16.7,14.3,30.00,North,5,0.0,5.0,90,0.00,,SKC,0.00,0.00,VWS V14.01,2013-04-10 07:57:00,
2013-04-10 02:00:00,16.4,13.5,29.97,NW,306,0.0,0.0,88,0.00,,SKC,0.00,0.00,VWS V14.01,2013-04-10 08:00:00,
2013-04-10 02:03:00,17.0,14.6,30.00,North,5,0.0,4.0,90,0.00,,SKC,0.00,0.00,VWS V14.01,2013-04-10 08:03:00,
2013-04-10 02:09:00,17.1,14.7,30.00,North,5,5.0,6.0,90,0.00,,SKC,0.00,0.00,VWS V14.01,2013-04-10 08:09:00,
2013-04-10 02:15:00,17.1,14.4,30.00,NNE,13,2.0,6.0,89,0.00,,SKC,0.00,0.00,VWS V14.01,2013-04-10 08:15:00,
2013-04-10 02:21:00,17.1,14.4,30.00,NNW,334,3.0,4.0,89,0.00,,SKC,0.00,0.00,VWS V14.01,2013-04-10 08:21:00,
2013-04-10 02:27:00,17.0,14.3,29.99,NNW,340,0.0,4.0,89,0.00,,SKC,0.00,0.00,VWS V14.01,2013-04-10 08:27:00,
2013-04-10 02:30:00,15.4,12.5,30.00,NW,306,0.0,2.0,88,0.00,,SKC,0.00,0.00,VWS V14.01,2013-04-10 08:30:00,
2013-04-10 02:33:00,17.0,14.3,30.00,NNW,340,0.0,1.0,89,0.00,,SKC,0.00,0.00,VWS V14.01,2013-04-10 08:33:00,
2013-04-10 02:40:00,17.0,14.3,30.00,NNW,340,0.0,2.0,89,0.00,,SKC,0.00,0.00,VWS V14.01,2013-04-10 08:40:00,
2013-04-10 02:45:00,16.0,13.3,29.99,NNW,338,3.0,4.0,89,0.00,,SKC,0.00,0.00,VWS V14.01,2013-04-10 08:45:00,
2013-04-10 02:46:00,17.0,14.1,30.00,NNW,340,0.0,2.0,88,0.00,,SKC,0.00,0.00,VWS V14.01,2013-04-10 08:46:00,
2013-04-10 02:52:00,16.9,14.0,30.00,NNW,340,0.0,2.0,88,0.00,,SKC,0.00,0.00,VWS V14.01,2013-04-10 08:52:00,
2013-04-10 02:58:00,16.8,13.9,30.00,North,350,2.0,4.0,88,0.00,,SKC,0.00,0.00,VWS V14.01,2013-04-10 08:58:00,
2013-04-10 03:00:00,16.9,14.5,30.00,North,5,0.0,5.0,90,0.00,,SKC,0.00,0.00,VWS V14.01,2013-04-10 09:00:00,
2013-04-10 03:04:00,16.8,13.9,30.03,North,350,2.0,3.0,88,0.00,,SKC,0.00,0.00,VWS V14.01,2013-04-10 09:04:00,
2013-04-10 03:10:00,16.8,13.9,30.03,North,350,1.0,3.0,88,0.00,,SKC,0.00,0.00,VWS V14.01,2013-04-10 09:10:00,
2013-04-10 03:15:00,17.1,14.4,30.00,NNE,13,3.0,6.0,89,0.00,,SKC,0.00,0.00,VWS V14.01,2013-04-10 09:15:00,
2013-04-10 03:16:00,16.7,13.8,30.03,North,350,0.0,3.0,88,0.00,,SKC,0.00,0.00,VWS V14.01,2013-04-10 09:16:00,
2013-04-10 03:22:00,16.7,13.5,30.03,North,351,0.0,3.0,87,0.00,,SKC,0.00,0.00,VWS V14.01,2013-04-10 09:22:00,
2013-04-10 03:28:00,16.6,13.4,30.02,North,351,0.0,3.0,87,0.00,,SKC,0.00,0.00,VWS V14.01,2013-04-10 09:28:00,
2013-04-10 03:30:00,17.1,14.4,30.00,NNW,340,0.0,4.0,89,0.00,,SKC,0.00,0.00,VWS V14.01,2013-04-10 09:30:00,
2013-04-10 03:34:00,16.6,13.4,30.03,North,350,0.0,2.0,87,0.00,,SKC,0.00,0.00,VWS V14.01,2013-04-10 09:34:00,
2013-04-10 03:40:00,16.6,13.4,30.03,North,351,1.0,2.0,87,0.00,,SKC,0.00,0.00,VWS V14.01,2013-04-10 09:40:00,
2013-04-10 03:45:00,17.0,14.1,30.00,NNW,340,0.0,2.0,88,0.00,,SKC,0.00,0.00,VWS V14.01,2013-04-10 09:45:00,
2013-04-10 03:46:00,16.6,13.4,30.03,North,350,0.0,3.0,87,0.00,,SKC,0.00,0.00,VWS V14.01,2013-04-10 09:46:00,
2013-04-10 03:51:00,16.6,13.4,30.03,North,351,0.0,3.0,87,0.00,,SKC,0.00,0.00,VWS V14.01,2013-04-10 09:51:00,
2013-04-10 03:57:00,16.6,13.4,30.03,North,351,1.0,3.0,87,0.00,,SKC,0.00,0.00,VWS V14.01,2013-04-10 09:57:00,
2013-04-10 04:00:00,16.8,13.9,30.00,North,350,1.0,4.0,88,0.00,,SKC,0.00,0.00,VWS V14.01,2013-04-10 10:00:00,
2013-04-10 04:03:00,16.7,13.5,30.05,North,351,1.0,2.0,87,0.00,,SKC,0.00,0.00,VWS V14.01,2013-04-10 10:03:00,
2013-04-10 04:09:00,16.7,13.5,30.05,North,9,2.0,4.0,87,0.00,,SKC,0.00,0.00,VWS V14.01,2013-04-10 10:09:00,
2013-04-10 04:15:00,16.6,13.4,30.05,NNE,20,2.0,4.0,87,0.00,,SKC,0.00,0.00,VWS V14.01,2013-04-10 10:15:00,
2013-04-10 04:22:00,16.6,13.4,30.05,NNE,19,0.0,4.0,87,0.00,,SKC,0.00,0.00,VWS V14.01,2013-04-10 10:22:00,
2013-04-10 04:28:00,16.6,13.4,30.05,NNE,28,0.0,4.0,87,0.00,,SKC,0.00,0.00,VWS V14.01,2013-04-10 10:28:00,
2013-04-10 04:30:00,16.6,13.4,30.03,North,350,0.0,3.0,87,0.00,,SKC,0.00,0.00,VWS V14.01,2013-04-10 10:30:00,
2013-04-10 04:34:00,16.5,13.3,30.05,NNE,32,1.0,3.0,87,0.00,,SKC,0.00,0.00,VWS V14.01,2013-04-10 10:34:00,
2013-04-10 04:40:00,16.4,13.2,30.05,NNE,26,2.0,4.0,87,0.00,,SKC,0.00,0.00,VWS V14.01,2013-04-10 10:40:00,
2013-04-10 04:45:00,16.6,13.4,30.03,North,350,0.0,3.0,87,0.00,,SKC,0.00,0.00,VWS V14.01,2013-04-10 10:45:00,
2013-04-10 04:46:00,16.4,13.2,30.05,North,355,5.0,6.0,87,0.00,,SKC,0.00,0.00,VWS V14.01,2013-04-10 10:46:00,
2013-04-10 04:52:00,16.2,13.0,30.06,North,360,2.0,6.0,87,0.00,,SKC,0.00,0.00,VWS V14.01,2013-04-10 10:52:00,
2013-04-10 04:58:00,16.1,12.9,30.05,North,5,3.0,6.0,87,0.00,,SKC,0.00,0.00,VWS V14.01,2013-04-10 10:58:00,
2013-04-10 05:00:00,16.7,13.5,30.03,North,351,1.0,3.0,87,0.00,,SKC,0.00,0.00,VWS V14.01,2013-04-10 11:00:00,
2013-04-10 05:04:00,15.9,12.7,30.07,NNE,20,5.0,6.0,87,0.00,,SKC,0.00,0.00,VWS V14.01,2013-04-10 11:04:00,
2013-04-10 05:11:00,15.8,12.9,30.07,NE,50,1.0,7.0,88,0.00,,SKC,0.00,0.00,VWS V14.01,2013-04-10 11:11:00,
2013-04-10 05:15:00,16.6,13.4,30.05,NNE,20,1.0,4.0,87,0.00,,SKC,0.00,0.00,VWS V14.01,2013-04-10 11:15:00,
2013-04-10 05:16:00,15.7,12.5,30.08,NNE,19,0.0,7.0,87,0.00,,SKC,0.00,0.00,VWS V14.01,2013-04-10 11:16:00,
2013-04-10 05:21:00,15.6,12.4,30.08,NNE,19,4.0,4.0,87,0.00,,SKC,0.00,0.00,VWS V14.01,2013-04-10 11:21:00,
2013-04-10 05:27:00,15.6,12.4,30.08,NNW,346,1.0,4.0,87,0.00,,SKC,0.00,0.00,VWS V14.01,2013-04-10 11:27:00,
2013-04-10 05:30:00,16.5,13.3,30.05,NNE,33,3.0,6.0,87,0.00,,SKC,0.00,0.00,VWS V14.01,2013-04-10 11:30:00,
2013-04-10 05:33:00,15.5,12.6,30.08,NNW,337,2.0,2.0,88,0.00,,SKC,0.00,0.00,VWS V14.01,2013-04-10 11:33:00,
2013-04-10 05:39:00,15.5,12.6,30.08,NNW,337,0.0,2.0,88,0.00,,SKC,0.00,0.00,VWS V14.01,2013-04-10 11:39:00,
2013-04-10 05:45:00,15.4,12.5,30.09,NNW,340,1.0,4.0,88,0.00,,SKC,0.00,0.00,VWS V14.01,2013-04-10 11:45:00,
2013-04-10 05:52:00,15.2,12.3,30.10,NNW,344,3.0,3.0,88,0.00,,SKC,0.00,0.00,VWS V14.01,2013-04-10 11:52:00,
2013-04-10 05:58:00,15.0,12.1,30.10,NE,43,0.0,4.0,88,0.00,,SKC,0.00,0.00,VWS V14.01,2013-04-10 11:58:00,
2013-04-10 06:00:00,16.1,13.2,30.06,NNE,13,3.0,6.0,88,0.00,,SKC,0.00,0.00,VWS V14.01,2013-04-10 12:00:00,
2013-04-10 06:04:00,14.8,11.9,30.10,North,360,0.0,4.0,88,0.00,,SKC,0.00,0.00,VWS V14.01,2013-04-10 12:04:00,
2013-04-10 06:10:00,14.5,11.6,30.10,NNE,21,3.0,7.0,88,0.00,,SKC,0.00,0.00,VWS V14.01,2013-04-10 12:10:00,
2013-04-10 06:15:00,15.7,12.5,30.08,NNE,19,0.0,7.0,87,0.00,,SKC,0.00,0.00,VWS V14.01,2013-04-10 12:15:00,
2013-04-10 06:16:00,14.2,11.1,30.12,North,9,1.0,7.0,87,0.00,,SKC,0.00,0.00,VWS V14.01,2013-04-10 12:16:00,
2013-04-10 06:22:00,14.1,10.9,30.13,North,355,1.0,5.0,87,0.00,,SKC,0.00,0.00,VWS V14.01,2013-04-10 12:22:00,
2013-04-10 06:28:00,13.9,10.8,30.13,NNE,13,3.0,5.0,87,0.00,,SKC,0.00,0.00,VWS V14.01,2013-04-10 12:28:00,
2013-04-10 06:30:00,15.5,12.6,30.08,NNW,337,0.0,4.0,88,0.00,,SKC,0.00,0.00,VWS V14.01,2013-04-10 12:30:00,
2013-04-10 06:34:00,13.9,10.8,30.14,NNE,13,0.0,3.0,87,0.00,,SKC,0.00,0.00,VWS V14.01,2013-04-10 12:34:00,
2013-04-10 06:40:00,13.8,10.6,30.14,NNE,13,0.0,3.0,87,0.00,,SKC,0.00,0.00,VWS V14.01,2013-04-10 12:40:00,
2013-04-10 06:45:00,15.4,12.5,30.09,NNW,340,0.0,4.0,88,0.00,,SKC,0.00,0.00,VWS V14.01,2013-04-10 12:45:00,
2013-04-10 06:46:00,13.7,10.6,30.14,NNE,13,0.0,2.0,87,0.00,,SKC,0.00,0.00,VWS V14.01,2013-04-10 12:46:00,
2013-04-10 06:52:00,13.7,10.6,30.14,NNE,13,1.0,4.0,87,0.00,,SKC,0.00,7.00,VWS V14.01,2013-04-10 12:52:00,
2013-04-10 06:58:00,13.8,10.9,30.15,NNE,14,0.0,4.0,88,0.00,,SKC,0.00,11.00,VWS V14.01,2013-04-10 12:58:00,
2013-04-10 07:00:00,14.9,12.0,30.10,NE,42,0.0,4.0,88,0.00,,SKC,0.00,0.00,VWS V14.01,2013-04-10 13:00:00,
2013-04-10 07:05:00,13.9,11.0,30.17,North,5,3.0,4.0,88,0.00,,SKC,0.00,14.00,VWS V14.01,2013-04-10 13:05:00,
2013-04-10 07:11:00,14.0,11.1,30.17,North,355,3.0,4.0,88,0.00,,SKC,0.00,14.00,VWS V14.01,2013-04-10 13:11:00,
2013-04-10 07:15:00,14.2,11.1,30.12,North,9,1.0,7.0,87,0.00,,SKC,0.00,0.00,VWS V14.01,2013-04-10 13:15:00,
2013-04-10 07:17:00,14.2,11.3,30.17,North,360,2.0,3.0,88,0.00,,SKC,0.00,18.00,VWS V14.01,2013-04-10 13:17:00,
2013-04-10 07:23:00,14.2,11.3,30.17,North,360,2.0,3.0,88,0.00,,SKC,0.00,25.00,VWS V14.01,2013-04-10 13:23:00,
2013-04-10 07:29:00,14.3,11.4,30.18,NNW,346,0.0,4.0,88,0.00,,SKC,0.00,32.00,VWS V14.01,2013-04-10 13:29:00,
2013-04-10 07:30:00,13.9,10.8,30.14,NNE,13,3.0,5.0,87,0.00,,SKC,0.00,0.00,VWS V14.01,2013-04-10 13:30:00,
2013-04-10 07:35:00,14.4,11.5,30.18,North,349,0.0,4.0,88,0.00,,SKC,0.00,33.00,VWS V14.01,2013-04-10 13:35:00,
2013-04-10 07:41:00,14.5,11.3,30.17,North,349,1.0,4.0,87,0.00,,SKC,0.00,42.00,VWS V14.01,2013-04-10 13:41:00,
2013-04-10 07:45:00,13.7,10.6,30.14,NNE,13,2.0,3.0,87,0.00,,SKC,0.00,0.00,VWS V14.01,2013-04-10 13:45:00,
2013-04-10 07:47:00,14.7,11.5,30.17,North,349,0.0,1.0,87,0.00,,SKC,0.00,49.00,VWS V14.01,2013-04-10 13:47:00,
2013-04-10 07:53:00,15.0,11.8,30.17,North,349,0.0,3.0,87,0.00,,SKC,0.00,54.00,VWS V14.01,2013-04-10 13:53:00,
2013-04-10 07:59:00,15.2,12.0,30.17,North,349,1.0,3.0,87,0.00,,SKC,0.00,63.00,VWS V14.01,2013-04-10 13:59:00,
2013-04-10 08:00:00,13.8,10.9,30.15,NNE,14,0.0,4.0,88,0.00,,SKC,0.00,12.00,VWS V14.01,2013-04-10 14:00:00,
2013-04-10 08:05:00,15.4,12.2,30.17,North,349,0.0,0.0,87,0.00,,SKC,0.00,72.00,VWS V14.01,2013-04-10 14:05:00,
2013-04-10 08:12:00,15.7,12.3,30.16,North,349,0.0,1.0,86,0.00,,SKC,0.00,72.00,VWS V14.01,2013-04-10 14:12:00,
2013-04-10 08:15:00,14.1,11.2,30.17,North,360,3.0,4.0,88,0.00,,SKC,0.00,16.00,VWS V14.01,2013-04-10 14:15:00,
2013-04-10 08:18:00,15.9,12.5,30.16,North,349,0.0,0.0,86,0.00,,SKC,0.00,74.00,VWS V14.01,2013-04-10 14:18:00,
2013-04-10 08:24:00,16.0,12.6,30.16,North,349,0.0,0.0,86,0.00,,SKC,0.00,76.00,VWS V14.01,2013-04-10 14:24:00,
2013-04-10 08:30:00,16.3,12.9,30.16,North,349,0.0,1.0,86,0.00,,SKC,0.00,67.00,VWS V14.01,2013-04-10 14:30:00,
2013-04-10 08:36:00,16.5,12.8,30.14,North,349,0.0,0.0,85,0.00,,SKC,0.00,76.00,VWS V14.01,2013-04-10 14:36:00,
2013-04-10 08:42:00,16.8,12.8,30.14,North,349,0.0,0.0,84,0.00,,SKC,0.00,72.00,VWS V14.01,2013-04-10 14:42:00,
2013-04-10 08:45:00,14.7,11.5,30.17,North,349,0.0,4.0,87,0.00,,SKC,0.00,47.00,VWS V14.01,2013-04-10 14:45:00,
2013-04-10 08:48:00,17.0,13.0,30.14,North,349,1.0,3.0,84,0.00,,SKC,0.00,90.00,VWS V14.01,2013-04-10 14:48:00,
2013-04-10 08:54:00,17.2,13.2,30.15,North,349,0.0,3.0,84,0.00,,SKC,0.00,83.00,VWS V14.01,2013-04-10 14:54:00,
2013-04-10 09:00:00,17.2,12.9,30.15,NNE,13,4.0,7.0,83,0.00,,SKC,0.00,93.00,VWS V14.01,2013-04-10 15:00:00,
2013-04-10 09:07:00,17.3,13.0,30.16,NNE,30,4.0,5.0,83,0.00,,SKC,0.00,107.00,VWS V14.01,2013-04-10 15:07:00,
2013-04-10 09:13:00,17.5,13.2,30.15,NNW,344,1.0,6.0,83,0.00,,SKC,0.00,125.00,VWS V14.01,2013-04-10 15:13:00,
2013-04-10 09:15:00,15.9,12.5,30.16,North,349,0.0,1.0,86,0.00,,SKC,0.00,72.00,VWS V14.01,2013-04-10 15:15:00,
2013-04-10 09:19:00,17.5,13.2,30.15,NNE,19,6.0,9.0,83,0.00,,SKC,0.00,125.00,VWS V14.01,2013-04-10 15:19:00,
2013-04-10 09:25:00,17.6,13.3,30.15,NNE,13,3.0,9.0,83,0.00,,SKC,0.00,132.00,VWS V14.01,2013-04-10 15:25:00,
2013-04-10 09:30:00,16.3,12.9,30.16,North,349,0.0,1.0,86,0.00,,SKC,0.00,65.00,VWS V14.01,2013-04-10 15:30:00,
2013-04-10 09:31:00,18.1,14.1,30.15,NNE,13,3.0,9.0,84,0.00,,SKC,0.00,192.00,VWS V14.01,2013-04-10 15:31:00,
2013-04-10 09:37:00,19.0,15.0,30.15,NNE,13,0.0,6.0,84,0.00,,SKC,0.00,218.00,VWS V14.01,2013-04-10 15:37:00,
2013-04-10 09:43:00,19.7,15.4,30.13,NNE,14,4.0,6.0,83,0.00,,SKC,0.00,292.00,VWS V14.01,2013-04-10 15:43:00,
2013-04-10 09:45:00,16.9,12.9,30.14,North,349,2.0,2.0,84,0.00,,SKC,0.00,72.00,VWS V14.01,2013-04-10 15:45:00,
2013-04-10 09:49:00,20.9,16.3,30.13,NNE,30,1.0,6.0,82,0.00,,SKC,0.00,341.00,VWS V14.01,2013-04-10 15:49:00,
2013-04-10 09:55:00,21.9,17.0,30.11,NE,35,2.0,7.0,81,0.00,,SKC,0.00,508.00,VWS V14.01,2013-04-10 15:55:00,
2013-04-10 10:00:00,17.2,12.9,30.15,North,5,3.0,7.0,83,0.00,,SKC,0.00,93.00,VWS V14.01,2013-04-10 16:00:00,
2013-04-10 10:01:00,22.4,16.9,30.11,NNE,32,6.0,7.0,79,0.00,,SKC,0.00,338.00,VWS V14.01,2013-04-10 16:01:00,
2013-04-10 10:08:00,22.5,16.7,30.11,NNE,19,5.0,7.0,78,0.00,,SKC,0.00,418.00,VWS V14.01,2013-04-10 16:08:00,
2013-04-10 10:14:00,22.5,17.0,30.12,NNE,32,0.0,7.0,79,0.00,,SKC,0.00,392.00,VWS V14.01,2013-04-10 16:14:00,
2013-04-10 10:15:00,17.5,13.2,30.15,NNE,15,6.0,6.0,83,0.00,,SKC,0.00,123.00,VWS V14.01,2013-04-10 16:15:00,
2013-04-10 10:20:00,22.7,17.2,30.10,NNE,32,3.0,4.0,79,0.00,,SKC,0.00,431.00,VWS V14.01,2013-04-10 16:20:00,
2013-04-10 10:27:00,23.4,17.9,30.11,NE,36,3.0,5.0,79,0.00,,SKC,0.00,670.00,VWS V14.01,2013-04-10 16:27:00,
2013-04-10 10:30:00,18.1,14.1,30.15,NNE,13,3.0,9.0,84,0.00,,SKC,0.00,192.00,VWS V14.01,2013-04-10 16:30:00,
2013-04-10 10:34:00,24.4,18.5,30.11,NE,38,3.0,5.0,78,0.00,,SKC,0.00,689.00,VWS V14.01,2013-04-10 16:34:00,
2013-04-10 10:40:00,25.0,18.8,30.09,NNE,33,0.0,5.0,77,0.00,,SKC,0.00,754.00,VWS V14.01,2013-04-10 16:40:00,
2013-04-10 10:45:00,20.2,15.6,30.13,NNE,14,3.0,6.0,82,0.00,,SKC,0.00,309.00,VWS V14.01,2013-04-10 16:45:00,
2013-04-10 10:46:00,25.6,18.8,30.09,North,355,3.0,6.0,75,0.00,,SKC,0.00,842.00,VWS V14.01,2013-04-10 16:46:00,
2013-04-10 10:52:00,26.4,19.2,30.09,NE,36,3.0,6.0,74,0.00,,SKC,0.00,993.00,VWS V14.01,2013-04-10 16:52:00,
2013-04-10 10:58:00,26.7,18.9,30.08,NNE,30,4.0,10.0,72,0.00,,SKC,0.00,969.00,VWS V14.01,2013-04-10 16:58:00,
2013-04-10 11:00:00,22.4,16.9,30.11,NNE,32,6.0,7.0,79,0.00,,SKC,0.00,338.00,VWS V14.01,2013-04-10 17:00:00,
2013-04-10 11:04:00,26.8,19.6,30.09,NNE,15,6.0,9.0,74,0.01,,SKC,0.01,995.00,VWS V14.01,2013-04-10 17:04:00,
2013-04-10 11:10:00,26.6,18.5,30.09,NNE,30,5.0,10.0,71,0.02,,SKC,0.02,529.00,VWS V14.01,2013-04-10 17:10:00,
2013-04-10 11:15:00,22.6,17.1,30.11,NNE,32,2.0,7.0,79,0.00,,SKC,0.00,392.00,VWS V14.01,2013-04-10 17:15:00,
2013-04-10 11:16:00,26.3,18.5,30.09,North,9,3.0,10.0,72,0.02,,SKC,0.02,891.00,VWS V14.01,2013-04-10 17:16:00,
2013-04-10 11:22:00,26.7,19.5,30.09,NNE,27,6.0,10.0,74,0.03,,SKC,0.03,874.00,VWS V14.01,2013-04-10 17:22:00,
2013-04-10 11:28:00,26.9,19.1,30.09,North,10,5.0,12.0,72,0.03,,SKC,0.03,735.00,VWS V14.01,2013-04-10 17:28:00,
2013-04-10 11:30:00,23.9,18.4,30.11,NE,41,2.0,5.0,79,0.00,,SKC,0.00,814.00,VWS V14.01,2013-04-10 17:30:00,
2013-04-10 11:34:00,27.4,19.9,30.08,NNE,29,1.0,7.0,73,0.04,,SKC,0.04,687.00,VWS V14.01,2013-04-10 17:34:00,
2013-04-10 11:42:00,27.3,19.1,30.08,NNE,26,1.0,7.0,71,0.04,,SKC,0.04,782.00,VWS V14.01,2013-04-10 17:42:00,
2013-04-10 11:45:00,25.6,18.8,30.09,North,9,3.0,6.0,75,0.00,,SKC,0.00,842.00,VWS V14.01,2013-04-10 17:45:00,
2013-04-10 11:48:00,27.5,20.0,30.06,NE,40,1.0,6.0,73,0.04,,SKC,0.04,770.00,VWS V14.01,2013-04-10 17:48:00,
2013-04-10 11:54:00,27.5,19.4,30.06,North,360,3.0,6.0,71,0.04,,SKC,0.04,810.00,VWS V14.01,2013-04-10 17:54:00,
2013-04-10 12:00:00,26.8,19.6,30.08,ENE,59,3.0,10.0,74,0.01,,SKC,0.01,960.00,VWS V14.01,2013-04-10 18:00:00,
2013-04-10 12:01:00,28.1,18.9,30.08,NE,34,2.0,7.0,68,0.04,,SKC,0.04,1000.00,VWS V14.01,2013-04-10 18:01:00,
2013-04-10 12:06:00,28.8,20.9,30.07,NNE,19,2.0,4.0,72,0.04,,SKC,0.05,953.00,VWS V14.01,2013-04-10 18:06:00,
2013-04-10 12:12:00,29.3,20.4,30.07,North,350,1.0,6.0,69,0.05,,SKC,0.06,993.00,VWS V14.01,2013-04-10 18:12:00,
2013-04-10 12:15:00,26.3,18.5,30.09,North,9,3.0,10.0,72,0.02,,SKC,0.02,891.00,VWS V14.01,2013-04-10 18:15:00,
2013-04-10 12:17:00,29.4,20.2,30.07,NNW,346,4.0,7.0,68,0.04,,SKC,0.06,972.00,VWS V14.01,2013-04-10 18:17:00,
2013-04-10 12:23:00,29.2,20.0,30.07,NNE,30,5.0,7.0,68,0.05,,SKC,0.07,935.00,VWS V14.01,2013-04-10 18:23:00,
2013-04-10 12:29:00,28.9,20.0,30.07,NE,41,2.0,7.0,69,0.05,,SKC,0.07,684.00,VWS V14.01,2013-04-10 18:29:00,
2013-04-10 12:30:00,27.0,19.2,30.09,North,11,1.0,12.0,72,0.03,,SKC,0.03,884.00,VWS V14.01,2013-04-10 18:30:00,
2013-04-10 12:36:00,29.0,20.8,30.06,NNE,17,2.0,7.0,71,0.05,,SKC,0.08,729.00,VWS V14.01,2013-04-10 18:36:00,
2013-04-10 12:42:00,29.5,20.9,30.06,North,10,2.0,8.0,70,0.05,,SKC,0.08,789.00,VWS V14.01,2013-04-10 18:42:00,
2013-04-10 12:45:00,27.4,19.2,30.08,NNE,28,2.0,7.0,71,0.04,,SKC,0.04,824.00,VWS V14.01,2013-04-10 18:45:00,
2013-04-10 12:48:00,29.7,21.5,30.04,North,360,5.0,5.0,71,0.05,,SKC,0.09,861.00,VWS V14.01,2013-04-10 18:48:00,
2013-04-10 12:54:00,29.9,21.0,30.03,NNE,29,1.0,10.0,69,0.05,,SKC,0.09,1021.00,VWS V14.01,2013-04-10 18:54:00,
2013-04-10 13:00:00,30.6,23.0,30.03,NNW,344,2.0,10.0,73,0.06,,SKC,0.10,1000.00,VWS V14.01,2013-04-10 19:00:00,
2013-04-10 13:06:00,31.0,22.4,30.01,NE,40,6.0,11.0,70,0.06,,SKC,0.10,993.00,VWS V14.01,2013-04-10 19:06:00,
2013-04-10 13:13:00,30.8,22.5,30.01,NNE,28,3.0,11.0,71,0.07,,SKC,0.11,986.00,VWS V14.01,2013-04-10 19:13:00,
2013-04-10 13:15:00,29.4,20.5,30.07,North,360,4.0,6.0,69,0.05,,SKC,0.06,986.00,VWS V14.01,2013-04-10 19:15:00,
2013-04-10 13:19:00,31.3,23.0,30.00,North,9,3.0,7.0,71,0.05,,SKC,0.11,984.00,VWS V14.01,2013-04-10 19:19:00,
2013-04-10 13:25:00,31.7,23.0,30.00,NE,48,4.0,9.0,70,0.06,,SKC,0.12,983.00,VWS V14.01,2013-04-10 19:25:00,
2013-04-10 13:30:00,28.9,20.4,30.06,NE,36,3.0,7.0,70,0.05,,SKC,0.07,675.00,VWS V14.01,2013-04-10 19:30:00,
2013-04-10 13:31:00,31.5,23.2,30.00,NNE,17,2.0,9.0,71,0.06,,SKC,0.12,1013.00,VWS V14.01,2013-04-10 19:31:00,
2013-04-10 13:37:00,31.9,23.2,30.00,NNE,15,2.0,10.0,70,0.06,,SKC,0.13,962.00,VWS V14.01,2013-04-10 19:37:00,
2013-04-10 13:43:00,32.4,24.7,29.99,NE,53,3.0,10.0,73,0.06,,SKC,0.13,963.00,VWS V14.01,2013-04-10 19:43:00,
2013-04-10 13:45:00,29.6,21.0,30.04,NE,46,2.0,8.0,70,0.05,,SKC,0.08,889.00,VWS V14.01,2013-04-10 19:45:00,
2013-04-10 13:50:00,32.5,24.2,29.97,North,355,4.0,10.0,71,0.06,,SKC,0.14,962.00,VWS V14.01,2013-04-10 19:50:00,
2013-04-10 13:56:00,32.3,22.9,29.99,NE,56,7.0,10.0,68,0.06,,SKC,0.14,956.00,VWS V14.01,2013-04-10 19:56:00,
2013-04-10 14:00:00,30.8,23.2,30.03,NNE,33,5.0,10.0,73,0.06,,SKC,0.10,995.00,VWS V14.01,2013-04-10 20:00:00,
2013-04-10 14:02:00,32.6,22.9,29.97,North,355,4.0,9.0,67,0.04,,SKC,0.14,951.00,VWS V14.01,2013-04-10 20:02:00,
2013-04-10 14:08:00,33.1,24.4,29.97,NNE,31,5.0,9.0,70,0.05,,SKC,0.15,953.00,VWS V14.01,2013-04-10 20:08:00,
2013-04-10 14:14:00,33.7,24.6,29.96,NNE,32,4.0,9.0,69,0.05,,SKC,0.15,953.00,VWS V14.01,2013-04-10 20:14:00,
2013-04-10 14:15:00,31.1,23.5,30.01,NNE,30,6.0,11.0,73,0.07,,SKC,0.11,981.00,VWS V14.01,2013-04-10 20:15:00,
2013-04-10 14:20:00,33.9,25.5,29.96,NNE,31,2.0,9.0,71,0.05,,SKC,0.16,946.00,VWS V14.01,2013-04-10 20:20:00,
2013-04-10 14:26:00,34.3,25.2,29.96,NE,37,5.0,11.0,69,0.05,,SKC,0.16,940.00,VWS V14.01,2013-04-10 20:26:00,
2013-04-10 14:30:00,31.5,23.2,30.00,NNE,17,2.0,9.0,71,0.06,,SKC,0.12,1013.00,VWS V14.01,2013-04-10 20:30:00,
2013-04-10 14:33:00,34.1,25.0,29.96,NNW,336,5.0,6.0,69,0.04,,SKC,0.16,947.00,VWS V14.01,2013-04-10 20:33:00,
2013-04-10 14:41:00,34.4,26.0,29.96,NNE,32,4.0,11.0,71,0.04,,SKC,0.16,928.00,VWS V14.01,2013-04-10 20:41:00,
2013-04-10 14:45:00,32.5,24.5,29.98,NNE,30,5.0,10.0,72,0.06,,SKC,0.13,960.00,VWS V14.01,2013-04-10 20:45:00,
2013-04-10 14:47:00,34.6,25.8,29.94,NE,48,6.0,10.0,70,0.04,,SKC,0.17,916.00,VWS V14.01,2013-04-10 20:47:00,
2013-04-10 14:53:00,34.4,24.6,29.95,NE,41,6.0,10.0,67,0.04,,SKC,0.17,946.00,VWS V14.01,2013-04-10 20:53:00,
2013-04-10 14:59:00,34.6,24.8,29.94,NE,49,5.0,11.0,67,0.04,,SKC,0.17,851.00,VWS V14.01,2013-04-10 20:59:00,
2013-04-10 15:00:00,32.6,23.6,29.97,North,9,9.0,10.0,69,0.06,,SKC,0.14,953.00,VWS V14.01,2013-04-10 21:00:00,
2013-04-10 15:05:00,34.4,24.2,29.95,NNE,32,8.0,9.0,66,0.03,,SKC,0.17,784.00,VWS V14.01,2013-04-10 21:05:00,
2013-04-10 15:11:00,34.8,25.7,29.93,North,360,3.0,9.0,69,0.03,,SKC,0.17,963.00,VWS V14.01,2013-04-10 21:11:00,
2013-04-10 15:15:00,33.9,25.8,29.96,NNE,18,4.0,9.0,72,0.05,,SKC,0.15,946.00,VWS V14.01,2013-04-10 21:15:00,
2013-04-10 15:17:00,34.5,24.3,29.94,NNE,15,4.0,7.0,66,0.02,,SKC,0.17,904.00,VWS V14.01,2013-04-10 21:17:00,
2013-04-10 15:23:00,34.2,24.0,29.96,NNE,15,5.0,10.0,66,0.02,,SKC,0.17,255.00,VWS V14.01,2013-04-10 21:23:00,
2013-04-10 15:30:00,34.3,24.9,29.95,NNE,26,3.0,11.0,68,0.02,,SKC,0.17,276.00,VWS V14.01,2013-04-10 21:30:00,
2013-04-10 15:37:00,35.3,25.5,29.93,North,360,4.0,9.0,67,0.01,,SKC,0.17,805.00,VWS V14.01,2013-04-10 21:37:00,
2013-04-10 15:43:00,35.7,25.1,29.93,NE,38,2.0,9.0,65,0.01,,SKC,0.17,714.00,VWS V14.01,2013-04-10 21:43:00,
2013-04-10 15:45:00,34.6,25.5,29.94,North,355,6.0,11.0,69,0.05,,SKC,0.17,916.00,VWS V14.01,2013-04-10 21:45:00,
2013-04-10 15:49:00,35.5,24.5,29.92,NNE,29,4.0,8.0,64,0.00,,SKC,0.17,244.00,VWS V14.01,2013-04-10 21:49:00,
2013-04-10 15:56:00,35.1,24.5,29.92,NE,53,2.0,8.0,65,0.01,,SKC,0.18,621.00,VWS V14.01,2013-04-10 21:56:00,
2013-04-10 16:00:00,34.5,25.0,29.94,NE,38,4.0,11.0,68,0.04,,SKC,0.17,480.00,VWS V14.01,2013-04-10 22:00:00,
2013-04-10 16:02:00,34.6,22.9,29.95,NNE,24,3.0,5.0,62,0.01,,SKC,0.18,246.00,VWS V14.01,2013-04-10 22:02:00,
2013-04-10 16:08:00,34.4,23.5,29.94,NE,43,3.0,6.0,64,0.01,,SKC,0.18,279.00,VWS V14.01,2013-04-10 22:08:00,
2013-04-10 16:14:00,34.6,24.4,29.94,NNW,338,6.0,6.0,66,0.01,,SKC,0.18,476.00,VWS V14.01,2013-04-10 22:14:00,
2013-04-10 16:15:00,34.5,25.0,29.94,NNE,17,2.0,9.0,68,0.03,,SKC,0.17,904.00,VWS V14.01,2013-04-10 22:15:00,
2013-04-10 16:20:00,35.2,24.3,29.94,NNW,344,3.0,5.0,64,0.01,,SKC,0.18,264.00,VWS V14.01,2013-04-10 22:20:00,
2013-04-10 16:26:00,35.9,24.5,29.92,NNE,19,6.0,10.0,63,0.01,,SKC,0.18,691.00,VWS V14.01,2013-04-10 22:26:00,
2013-04-10 16:30:00,34.3,24.5,29.95,NNE,14,3.0,11.0,67,0.02,,SKC,0.17,619.00,VWS V14.01,2013-04-10 22:30:00,
2013-04-10 16:32:00,36.6,24.8,29.91,NNE,28,4.0,4.0,62,0.01,,SKC,0.18,652.00,VWS V14.01,2013-04-10 22:32:00,
2013-04-10 16:38:00,36.4,25.0,29.91,NNE,32,10.0,10.0,63,0.01,,SKC,0.18,387.00,VWS V14.01,2013-04-10 22:38:00,
2013-04-10 16:44:00,35.8,24.5,29.91,NNE,28,2.0,10.0,63,0.01,,SKC,0.18,257.00,VWS V14.01,2013-04-10 22:44:00,
2013-04-10 16:45:00,35.7,25.1,29.93,North,11,5.0,9.0,65,0.01,,SKC,0.17,714.00,VWS V14.01,2013-04-10 22:45:00,
2013-04-10 16:50:00,35.2,24.3,29.93,NNE,15,10.0,10.0,64,0.01,,SKC,0.18,183.00,VWS V14.01,2013-04-10 22:50:00,
2013-04-10 16:58:00,34.5,24.0,29.93,North,9,3.0,10.0,65,0.01,,SKC,0.18,155.00,VWS V14.01,2013-04-10 22:58:00,
2013-04-10 17:00:00,34.6,23.3,29.95,NNE,24,2.0,10.0,63,0.01,,SKC,0.18,246.00,VWS V14.01,2013-04-10 23:00:00,
2013-04-10 17:04:00,34.4,23.5,29.95,North,11,0.0,5.0,64,0.00,,SKC,0.18,160.00,VWS V14.01,2013-04-10 23:04:00,
2013-04-10 17:10:00,34.4,23.5,29.95,NNW,342,2.0,7.0,64,0.00,,SKC,0.18,156.00,VWS V14.01,2013-04-10 23:10:00,
2013-04-10 17:15:00,34.8,23.9,29.94,North,11,2.0,6.0,64,0.01,,SKC,0.18,476.00,VWS V14.01,2013-04-10 23:15:00,
2013-04-10 17:16:00,34.4,23.9,29.95,NE,38,3.0,7.0,65,0.00,,SKC,0.18,158.00,VWS V14.01,2013-04-10 23:16:00,
2013-04-10 17:22:00,34.5,24.3,29.93,NNE,30,2.0,5.0,66,0.00,,SKC,0.18,218.00,VWS V14.01,2013-04-10 23:22:00,
2013-04-10 17:28:00,35.3,25.1,29.93,NNE,33,1.0,5.0,66,0.00,,SKC,0.18,439.00,VWS V14.01,2013-04-10 23:28:00,
2013-04-10 17:30:00,36.6,26.0,29.92,NNE,19,3.0,10.0,65,0.01,,SKC,0.18,643.00,VWS V14.01,2013-04-10 23:30:00,
2013-04-10 17:34:00,35.7,24.0,29.93,NNE,14,4.0,7.0,62,0.00,,SKC,0.18,257.00,VWS V14.01,2013-04-10 23:34:00,
2013-04-10 17:40:00,35.5,24.9,29.93,North,10,0.0,7.0,65,0.00,,SKC,0.18,322.00,VWS V14.01,2013-04-10 23:40:00,
2013-04-10 17:45:00,35.6,23.9,29.91,NE,34,3.0,10.0,62,0.01,,SKC,0.18,225.00,VWS V14.01,2013-04-10 23:45:00,
2013-04-10 17:46:00,35.6,23.9,29.94,North,355,1.0,9.0,62,0.00,,SKC,0.18,246.00,VWS V14.01,2013-04-10 23:46:00,
2013-04-10 17:51:00,35.3,24.0,29.94,NNE,24,4.0,7.0,63,0.00,,SKC,0.18,223.00,VWS V14.01,2013-04-10 23:51:00,
2013-04-10 17:57:00,35.2,23.5,29.94,NNE,18,0.0,7.0,62,0.00,,SKC,0.18,158.00,VWS V14.01,2013-04-10 23:57:00,
2013-04-10 18:00:00,34.4,23.5,29.93,NNE,13,3.0,10.0,64,0.01,,SKC,0.18,148.00,VWS V14.01,2013-04-11 00:00:00,
2013-04-10 18:03:00,35.0,22.9,29.96,NNE,18,5.0,5.0,61,0.00,,SKC,0.18,151.00,VWS V14.01,2013-04-11 00:03:00,
2013-04-10 18:09:00,35.0,23.7,29.96,North,5,3.0,5.0,63,0.00,,SKC,0.18,160.00,VWS V14.01,2013-04-11 00:09:00,
2013-04-10 18:15:00,35.1,24.2,29.96,North,5,2.0,5.0,64,0.00,,SKC,0.18,185.00,VWS V14.01,2013-04-11 00:15:00,
2013-04-10 18:22:00,35.2,23.5,29.96,North,360,1.0,1.0,62,0.00,,SKC,0.18,174.00,VWS V14.01,2013-04-11 00:22:00,
2013-04-10 18:28:00,35.2,22.7,29.96,South,171,0.0,7.0,60,0.00,,SKC,0.18,132.00,VWS V14.01,2013-04-11 00:28:00,
2013-04-10 18:30:00,35.6,25.0,29.93,North,360,2.0,6.0,65,0.00,,SKC,0.18,322.00,VWS V14.01,2013-04-11 00:30:00,
2013-04-10 18:34:00,35.1,21.8,29.97,SSE,153,0.0,3.0,58,0.00,,SKC,0.18,90.00,VWS V14.01,2013-04-11 00:34:00,
2013-04-10 18:40:00,34.9,21.6,29.98,NNW,344,3.0,5.0,58,0.00,,SKC,0.18,63.00,VWS V14.01,2013-04-11 00:40:00,
2013-04-10 18:45:00,35.6,23.9,29.94,North,355,1.0,9.0,62,0.00,,SKC,0.18,246.00,VWS V14.01,2013-04-11 00:45:00,
2013-04-10 18:46:00,34.4,20.8,29.98,WNW,298,6.0,8.0,57,0.00,,SKC,0.18,51.00,VWS V14.01,2013-04-11 00:46:00,
2013-04-10 18:52:00,34.1,21.3,29.98,NNW,327,3.0,8.0,59,0.00,,SKC,0.18,42.00,VWS V14.01,2013-04-11 00:52:00,
2013-04-10 18:58:00,33.5,21.5,29.98,NNW,336,8.0,10.0,61,0.00,,SKC,0.18,37.00,VWS V14.01,2013-04-11 00:58:00,
2013-04-10 19:00:00,35.0,22.9,29.94,NNE,18,0.0,7.0,61,0.00,,SKC,0.18,156.00,VWS V14.01,2013-04-11 01:00:00,
2013-04-10 19:04:00,33.2,21.6,29.98,NNW,327,0.0,4.0,62,0.00,,SKC,0.18,33.00,VWS V14.01,2013-04-11 01:04:00,
2013-04-10 19:10:00,33.0,20.6,29.99,WNW,298,0.0,5.0,60,0.00,,SKC,0.18,44.00,VWS V14.01,2013-04-11 01:10:00,
2013-04-10 19:15:00,35.1,24.2,29.96,North,5,0.0,5.0,64,0.00,,SKC,0.18,185.00,VWS V14.01,2013-04-11 01:15:00,
2013-04-10 19:16:00,33.0,20.2,29.99,WNW,299,2.0,9.0,59,0.00,,SKC,0.18,49.00,VWS V14.01,2013-04-11 01:16:00,
2013-04-10 19:22:00,32.9,20.5,29.99,North,349,4.0,6.0,60,0.00,,SKC,0.18,40.00,VWS V14.01,2013-04-11 01:22:00,
2013-04-10 19:28:00,32.8,20.9,29.99,WNW,290,0.0,7.0,61,0.00,,SKC,0.18,30.00,VWS V14.01,2013-04-11 01:28:00,
2013-04-10 19:30:00,35.1,21.0,29.97,ESE,105,2.0,7.0,56,0.00,,SKC,0.18,114.00,VWS V14.01,2013-04-11 01:30:00,
2013-04-10 19:35:00,32.8,20.9,29.99,North,350,3.0,8.0,61,0.00,,SKC,0.18,19.00,VWS V14.01,2013-04-11 01:35:00,
2013-04-10 19:41:00,32.6,20.3,30.00,WNW,290,2.0,8.0,60,0.00,,SKC,0.18,0.00,VWS V14.01,2013-04-11 01:41:00,
2013-04-10 19:45:00,34.4,20.8,29.98,WNW,298,6.0,8.0,57,0.00,,SKC,0.18,51.00,VWS V14.01,2013-04-11 01:45:00,
2013-04-10 19:47:00,32.4,20.1,30.01,WNW,294,1.0,3.0,60,0.00,,SKC,0.18,0.00,VWS V14.01,2013-04-11 01:47:00,
2013-04-10 19:53:00,32.2,21.0,30.01,WNW,294,0.0,3.0,63,0.00,,SKC,0.18,0.00,VWS V14.01,2013-04-11 01:53:00,
2013-04-10 19:59:00,32.1,22.0,30.02,WNW,294,0.0,3.0,66,0.00,,SKC,0.18,0.00,VWS V14.01,2013-04-11 01:59:00,
2013-04-10 20:00:00,33.3,21.7,29.99,WNW,294,0.0,10.0,62,0.00,,SKC,0.18,35.00,VWS V14.01,2013-04-11 02:00:00,
2013-04-10 20:05:00,31.8,22.1,30.00,WNW,294,0.0,1.0,67,0.00,,SKC,0.18,0.00,VWS V14.01,2013-04-11 02:05:00,
2013-04-10 20:11:00,31.4,22.1,30.00,WNW,294,0.0,2.0,68,0.00,,SKC,0.18,0.00,VWS V14.01,2013-04-11 02:11:00,
2013-04-10 20:15:00,33.0,20.2,29.99,WNW,299,2.0,9.0,59,0.00,,SKC,0.18,49.00,VWS V14.01,2013-04-11 02:15:00,
2013-04-10 20:17:00,31.0,22.0,30.01,WNW,294,0.0,0.0,69,0.00,,SKC,0.18,0.00,VWS V14.01,2013-04-11 02:17:00,
2013-04-10 20:24:00,30.6,22.0,30.01,WNW,294,0.0,2.0,70,0.00,,SKC,0.18,0.00,VWS V14.01,2013-04-11 02:24:00,
2013-04-10 20:30:00,30.0,21.8,30.02,WNW,294,0.0,2.0,71,0.00,,SKC,0.18,0.00,VWS V14.01,2013-04-11 02:30:00,
2013-04-10 20:36:00,29.5,21.3,30.03,WNW,294,0.0,2.0,71,0.00,,SKC,0.18,0.00,VWS V14.01,2013-04-11 02:36:00,
2013-04-10 20:42:00,29.2,21.3,30.03,West,269,2.0,2.0,72,0.00,,SKC,0.18,0.00,VWS V14.01,2013-04-11 02:42:00,
2013-04-10 20:45:00,32.4,20.5,30.00,WNW,290,1.0,8.0,61,0.00,,SKC,0.18,0.00,VWS V14.01,2013-04-11 02:45:00,
2013-04-10 20:48:00,28.8,21.2,30.03,West,269,3.0,3.0,73,0.00,,SKC,0.18,0.00,VWS V14.01,2013-04-11 02:48:00,
2013-04-10 20:54:00,28.1,20.9,30.05,West,268,3.0,3.0,74,0.00,,SKC,0.18,0.00,VWS V14.01,2013-04-11 02:54:00,
2013-04-10 21:00:00,27.7,20.5,30.05,West,266,0.0,3.0,74,0.00,,SKC,0.18,0.00,VWS V14.01,2013-04-11 03:00:00,
2013-04-10 21:06:00,27.4,20.5,30.02,SSE,167,2.0,3.0,75,0.00,,SKC,0.18,0.00,VWS V14.01,2013-04-11 03:06:00,
2013-04-10 21:12:00,27.1,20.5,30.03,South,170,0.0,3.0,76,0.00,,SKC,0.18,0.00,VWS V14.01,2013-04-11 03:12:00,
2013-04-10 21:15:00,31.1,22.1,30.00,WNW,294,0.0,2.0,69,0.00,,SKC,0.18,0.00,VWS V14.01,2013-04-11 03:15:00,
2013-04-10 21:18:00,26.9,20.7,30.03,South,169,0.0,0.0,77,0.00,,SKC,0.18,0.00,VWS V14.01,2013-04-11 03:18:00,
2013-04-10 21:25:00,26.6,20.4,30.04,South,171,2.0,2.0,77,0.00,,SKC,0.18,0.00,VWS V14.01,2013-04-11 03:25:00,
2013-04-10 21:30:00,29.9,21.7,30.03,WNW,294,0.0,2.0,71,0.00,,SKC,0.18,0.00,VWS V14.01,2013-04-11 03:30:00,
2013-04-10 21:31:00,26.3,20.4,30.04,South,169,0.0,2.0,78,0.00,,SKC,0.18,0.00,VWS V14.01,2013-04-11 03:31:00,
2013-04-10 21:37:00,26.2,20.3,30.04,South,171,0.0,0.0,78,0.00,,SKC,0.18,0.00,VWS V14.01,2013-04-11 03:37:00,
2013-04-10 21:43:00,26.0,20.4,30.05,South,169,0.0,1.0,79,0.00,,SKC,0.18,0.00,VWS V14.01,2013-04-11 03:43:00,
2013-04-10 21:45:00,28.9,21.4,30.02,West,269,0.0,2.0,73,0.00,,SKC,0.18,0.00,VWS V14.01,2013-04-11 03:45:00,
2013-04-10 21:49:00,25.7,20.4,30.04,South,171,0.0,1.0,80,0.00,,SKC,0.18,0.00,VWS V14.01,2013-04-11 03:49:00,
2013-04-10 21:55:00,25.4,20.1,30.05,South,169,0.0,1.0,80,0.00,,SKC,0.18,0.00,VWS V14.01,2013-04-11 03:55:00,
2013-04-10 22:00:00,25.3,20.0,30.05,South,171,0.0,1.0,80,0.00,,SKC,0.18,0.00,VWS V14.01,2013-04-11 04:00:00,
2013-04-10 22:01:00,25.3,20.0,30.05,South,171,0.0,0.0,80,0.00,,SKC,0.18,0.00,VWS V14.01,2013-04-11 04:01:00,
2013-04-10 22:07:00,25.1,20.1,30.00,South,171,0.0,1.0,81,0.00,,SKC,0.18,0.00,VWS V14.01,2013-04-11 04:07:00,
2013-04-10 22:13:00,24.9,19.9,30.00,South,170,0.0,2.0,81,0.00,,SKC,0.18,0.00,VWS V14.01,2013-04-11 04:13:00,
2013-04-10 22:15:00,27.0,20.5,30.03,South,171,0.0,3.0,76,0.00,,SKC,0.18,0.00,VWS V14.01,2013-04-11 04:15:00,
2013-04-10 22:19:00,24.9,19.9,30.00,South,170,3.0,3.0,81,0.00,,SKC,0.18,0.00,VWS V14.01,2013-04-11 04:19:00,
2013-04-10 22:22:00,25.0,19.7,30.00,WSW,240,7.0,11.0,80,0.00,,SKC,0.18,0.00,VWS V14.01,2013-04-11 04:22:00,
2013-04-10 22:28:00,25.7,19.8,30.00,SSW,196,9.0,12.0,78,0.00,,SKC,0.18,0.00,VWS V14.01,2013-04-11 04:28:00,
2013-04-10 22:30:00,26.3,20.4,30.04,South,169,0.0,2.0,78,0.00,,SKC,0.18,0.00,VWS V14.01,2013-04-11 04:30:00,
2013-04-10 22:34:00,26.3,19.5,29.99,SW,229,6.0,10.0,75,0.00,,SKC,0.18,0.00,VWS V14.01,2013-04-11 04:34:00,
2013-04-10 22:40:00,26.8,19.3,29.98,SW,214,4.0,10.0,73,0.00,,SKC,0.18,0.00,VWS V14.01,2013-04-11 04:40:00,
2013-04-10 22:45:00,25.8,20.2,30.04,South,170,1.0,2.0,79,0.00,,SKC,0.18,0.00,VWS V14.01,2013-04-11 04:45:00,
2013-04-10 22:46:00,27.1,19.0,29.98,SW,215,1.0,13.0,71,0.00,,SKC,0.18,0.00,VWS V14.01,2013-04-11 04:46:00,
2013-04-10 22:51:00,27.2,19.1,29.98,South,173,4.0,10.0,71,0.00,,SKC,0.18,0.00,VWS V14.01,2013-04-11 04:51:00,
2013-04-10 22:57:00,27.3,19.1,29.98,SW,231,4.0,10.0,71,0.00,,SKC,0.18,0.00,VWS V14.01,2013-04-11 04:57:00,
2013-04-10 23:00:00,25.3,20.0,30.05,South,170,0.0,1.0,80,0.00,,SKC,0.18,0.00,VWS V14.01,2013-04-11 05:00:00,
2013-04-10 23:03:00,27.4,19.2,29.98,SW,225,3.0,5.0,71,0.00,,SKC,0.18,0.00,VWS V14.01,2013-04-11 05:03:00,
2013-04-10 23:09:00,27.4,19.6,29.98,SSE,151,1.0,6.0,72,0.00,,SKC,0.18,0.00,VWS V14.01,2013-04-11 05:09:00,
2013-04-10 23:15:00,27.3,19.8,29.98,SSE,153,2.0,6.0,73,0.00,,SKC,0.18,0.00,VWS V14.01,2013-04-11 05:15:00,
2013-04-10 23:21:00,27.2,20.0,29.98,SSE,155,1.0,5.0,74,0.00,,SKC,0.18,0.00,VWS V14.01,2013-04-11 05:21:00,
2013-04-10 23:27:00,27.2,20.0,29.98,SSE,155,0.0,5.0,74,0.00,,SKC,0.18,0.00,VWS V14.01,2013-04-11 05:27:00,
2013-04-10 23:30:00,26.1,19.6,30.00,South,183,4.0,12.0,76,0.00,,SKC,0.18,0.00,VWS V14.01,2013-04-11 05:30:00,
2013-04-10 23:33:00,27.1,20.2,29.98,SSE,153,2.0,5.0,75,0.00,,SKC,0.18,0.00,VWS V14.01,2013-04-11 05:33:00,
2013-04-10 23:39:00,27.0,20.1,29.98,SE,146,4.0,7.0,75,0.00,,SKC,0.18,0.00,VWS V14.01,2013-04-11 05:39:00,
2013-04-10 23:45:00,27.0,20.1,29.97,SE,145,2.0,7.0,75,0.00,,SKC,0.18,0.00,VWS V14.01,2013-04-11 05:45:00,
2013-04-10 23:51:00,27.0,19.8,29.96,South,172,2.0,6.0,74,0.00,,SKC,0.18,0.00,VWS V14.01,2013-04-11 05:51:00,
2013-04-10 23:57:00,27.1,19.9,29.96,SE,132,0.0,7.0,74,0.00,,SKC,0.18,0.00,VWS V14.01,2013-04-11 05:57:00,